Flag for Honduras Weather past 2 weeks in Tegucigalpa, Honduras

Now
61 °F

Passing clouds.


Feels Like: 61 °F
Forecast: 60 / 76 °F
Wind: 12 mph from North

Location: Tegucigalpa Airport

Current Time: Jan 25, 2015 at 9:34:17 PM

Latest Report: Jan 25, 2015 at 9:00 PM


Visibility: 4 mi

Pressure: 30.12 "Hg

Humidity: 100%

Dew point: 61 °F

Location of TegucigalpaLocation

Historic Weather in Tegucigalpa — Graph

°F

Tegucigalpa temperature yesterday

Maximum temperature yesterday: 82 °F (at 1:00 PM)
Minimum temperature yesterday: 59 °F (at 5:00 AM)
Average temperature yesterday: 70 °F

Past Weeks' High & Low Weather Summary

 TemperatureHumidityPressure
High86 °F (Jan 23, 2:00 PM)100% (Jan 12, 2:00 AM)30.24 "Hg (Jan 12, 2:00 AM)
Low55 °F (Jan 20, 1:00 AM)35% (Jan 21, 3:00 PM)30.01 "Hg (Jan 20, 4:00 PM)
Average70 °F77%30.12 "Hg
* Reported Jan 10 8:00 PM — Jan 25 8:00 PM, Tegucigalpa, Weather by CustomWeather, © 2014

Note: Actual official high and low records may vary slightly from our data, if they occured in-between our weather recording intervals... More about our weather records

Advertising

Tegucigalpa weather history for previous 24 hours

 ConditionsComfort  
Time TempWeatherWind HumidityBarometerVisibility
8:00 PM
Jan 25
61 °FPassing clouds.12 mph100%30.09 "Hg4 mi
7:00 PM63 °FScattered showers. Passing clouds.12 mph94%30.09 "Hg4 mi
6:00 PM63 °FScattered showers. Passing clouds.14 mph94%30.07 "Hg4 mi
5:00 PM64 °FScattered showers. Partly sunny.12 mph94%30.07 "Hg4 mi
4:00 PM66 °FPartly sunny.14 mph88%30.04 "HgN/A
3:00 PM72 °FPartly sunny.16 mph78%30.04 "HgN/A
2:00 PM72 °FPartly sunny.16 mph78%30.04 "HgN/A
1:00 PM70 °FScattered showers. Partly sunny.12 mph83%30.07 "Hg5 mi
12:00 PM68 °FScattered showers. Partly sunny.12 mph88%30.09 "Hg4 mi
11:00 AM70 °FDrizzle. Partly sunny.14 mph94%30.12 "Hg5 mi
10:00 AM66 °FDrizzle. Partly sunny.12 mph94%30.12 "Hg5 mi
9:00 AM64 °FDrizzle. Partly sunny.12 mph100%30.12 "Hg2 mi
8:00 AM64 °FDrizzle. Partly sunny.14 mph100%30.12 "Hg1 mi
7:00 AM63 °FDrizzle. Partly sunny.14 mph100%30.09 "Hg1 mi
6:00 AM64 °FScattered showers. Passing clouds.14 mph94%30.09 "Hg4 mi
5:00 AM63 °FPassing clouds.9 mph94%30.07 "HgN/A
4:00 AM64 °FPassing clouds.14 mph94%30.07 "HgN/A
3:00 AM64 °FPassing clouds.14 mph94%30.07 "HgN/A
2:00 AM64 °FPassing clouds.14 mph88%30.07 "HgN/A
1:00 AM66 °FPassing clouds.16 mph88%30.09 "HgN/A
12:00 AM66 °FPassing clouds.14 mph88%30.09 "HgN/A
11:00 PM
Jan 24
66 °FPassing clouds.14 mph88%30.12 "HgN/A
10:00 PM66 °FPassing clouds.12 mph88%30.12 "HgN/A
9:00 PM68 °FPassing clouds.14 mph83%30.12 "HgN/A
Weather by CustomWeather, © 2014

See weather overviewHow to use our weather pages